This demonstration page uses our WeatherBlox Daily Observations layout. Learn more.

Left ArrowRight Arrow

Hourly Observations for May 16, 2015

Temp ( °F °C ) Dew Point ( °F °C ) Humidity (%) Winds ( mph kmh ) Pressure ( in mb ) Visibility ( mi km ) Precip ( " mm )
12:58 am 00:58 Clear 64 17.5 62 16.7 95 95 ESE 10 17 29.82 1010 10 16 0.00 0.00
1:58 am 01:58 Clear 64 17.7 63 17.1 96 96 ESE 12 19 29.80 1009 10 16 0.00 0.00
2:58 am 02:58 Clear 64 18 64 17.5 97 97 ESE 9 15 29.79 1009 10 16 0.00 0.00
3:20 am 03:20 Mostly Cloudy 64 18 64 18 100 100 SE 7 11 29.77 1008 10 16 0.00 0.00
3:58 am 03:58 Cloudy 65 18.5 64 17.9 96 96 SE 8 13 29.79 1009 10 16 0.00 0.00
4:13 am 04:13 Mostly Cloudy 66 19 64 18 94 94 ESE 8 13 29.77 1008 10 16 0.00 0.00
4:58 am 04:58 Mostly Cloudy 67 19.2 65 18.4 95 95 ESE 12 19 29.78 1008 10 16 0.00 0.00
5:12 am 05:12 Partly Cloudy 68 20 64 18 88 88 SE 10 17 29.74 1007 10 16 0.00 0.00
5:15 am 05:15 Mostly Cloudy 68 20 66 19 94 94 SE 10 17 29.74 1007 10 16 0.00 0.00
5:58 am 05:58 Mostly Cloudy 68 20 65 18.5 91 91 SE 10 17 29.78 1009 10 16 0.00 0.00
6:15 am 06:15 Mostly Cloudy with Light Rain 68 20 64 18 88 88 ESE 12 19 29.77 1008 10 16 0.00 0.00
6:23 am 06:23 Mostly Cloudy 68 20 64 18 88 88 ESE 13 20 29.77 1008 10 16 0.00 0.00
6:32 am 06:32 Mostly Cloudy 68 20 64 18 88 88 SE 10 17 29.77 1008 10 16 0.00 0.00
6:34 am 06:34 Mostly Cloudy 68 20 64 18 88 88 SE 9 15 29.77 1008 10 16 0.00 0.00
6:43 am 06:43 Partly Cloudy 68 20 64 18 88 88 ESE 10 17 29.77 1008 10 16 0.00 0.00
6:49 am 06:49 Mostly Cloudy 68 20 64 18 88 88 SE 8 13 29.77 1008 10 16 0.00 0.00
6:58 am 06:58 Mostly Cloudy 68 19.8 65 18.5 92 92 SE 12 19 29.80 1009 10 16 0.00 0.03
7:10 am 07:10 Mostly Cloudy 68 20 64 18 88 88 SSE 12 19 29.77 1008 10 16 0.00 0.00
7:27 am 07:27 Mostly Cloudy 68 20 64 18 88 88 SE 15 24 29.80 1009 10 16 0.00 0.00
7:30 am 07:30 Mostly Cloudy 68 20 64 18 88 88 SE 13 20 29.80 1009 10 16 0.00 0.00
7:44 am 07:44 Mostly Cloudy 68 20 64 18 88 88 SE 13 20 29.80 1009 10 16 0.00 0.00
7:58 am 07:58 Mostly Cloudy 69 20.4 65 18.4 88 88 SE 13 20 29.82 1010 10 16 0.00 0.00
8:38 am 08:38 Mostly Cloudy 70 21 66 19 88 88 SE 16 26 29.80 1009 10 16 0.00 0.00
8:40 am 08:40 Partly Cloudy 70 21 66 19 88 88 SE 14 22 29.80 1009 10 16 0.00 0.00
8:58 am 08:58 Partly Cloudy 70 21.1 66 18.8 87 87 SE 16 26 29.80 1009 10 16 0.00 0.00
9:10 am 09:10 Mostly Cloudy 72 22 66 19 83 83 SE 17 28 29.74 1007 10 16 0.00 0.00
9:13 am 09:13 Partly Cloudy 72 22 66 19 83 83 SSE 17 28 29.74 1007 10 16 0.00 0.00
9:14 am 09:14 Mostly Cloudy 72 22 66 19 83 83 SE 17 28 29.74 1007 10 16 0.00 0.00
9:33 am 09:33 Mostly Cloudy 70 21 66 19 88 88 SE 16 26 29.77 1008 10 16 0.00 0.00
9:58 am 09:58 Mostly Cloudy 71 21.9 66 18.9 83 83 SE 15 24 29.80 1009 10 16 0.00 0.00
10:42 am 10:42 Mostly Cloudy 72 22 64 18 78 78 SSE 15 24 29.74 1007 10 16 0.00 0.00
10:49 am 10:49 Mostly Cloudy 72 22 64 18 78 78 S 10 17 29.74 1007 10 16 0.00 0.00
10:58 am 10:58 Mostly Cloudy 72 22.2 65 18.5 80 80 SSE 14 22 29.78 1009 10 16 0.00 0.00
11:58 am 11:58 Mostly Sunny 74 23.6 64 18 71 71 SSE 13 20 29.76 1008 10 16 0.00 0.00
12:58 pm 12:58 Partly Cloudy 77 24.8 66 18.7 69 69 SE 22 35 29.74 1007 10 16 0.00 0.00
1:58 pm 13:58 Partly Cloudy 77 24.9 65 18.6 68 68 SE 20 31 29.72 1007 10 16 0.00 0.00
2:58 pm 14:58 Partly Cloudy 79 25.9 64 17.5 60 60 SSE 17 28 29.72 1007 10 16 0.00 0.00
3:58 pm 15:58 Mostly Sunny 79 26.1 66 18.7 64 64 S 15 24 29.73 1007 10 16 0.00 0.00
4:04 pm 16:04 Partly Cloudy with Light Rain 77 25 66 19 69 69 SSE 14 22 29.68 1005 10 16 0.00 0.00
4:15 pm 16:15 Mostly Sunny 77 25 66 19 69 69 S 9 15 29.68 1005 10 16 0.00 0.00
4:56 pm 16:56 Partly Cloudy with Light Rain 77 25 66 19 69 69 S 17 28 29.68 1005 10 16 0.00 0.00
4:58 pm 16:58 Partly Cloudy with Light Rain 77 25 66 19 69 69 S 15 24 29.72 1007 10 16 0.01 0.25
5:02 pm 17:02 Mostly Cloudy with Thunderstorms 75 24 66 19 74 74 SSW 14 22 29.68 1005 10 16 0.00 0.00
5:18 pm 17:18 Mostly Cloudy 77 25 64 18 65 65 S 9 15 29.68 1005 10 16 0.00 0.00
5:35 pm 17:35 Partly Cloudy with Light Rain 73 23 59 15 61 61 SSW 8 13 29.68 1005 10 16 0.00 0.00
5:56 pm 17:56 Sunny 73 23 63 17 69 69 S 9 15 29.68 1005 10 16 0.00 0.00
5:58 pm 17:58 Sunny 73 23 63 17 69 69 S 8 13 29.73 1007 10 16 0.03 0.76
6:05 pm 18:05 Partly Cloudy with Light Rain 73 23 63 17 69 69 S 9 15 29.68 1005 10 16 0.00 0.00
6:14 pm 18:14 Mostly Sunny 72 22 66 19 83 83 SSE 12 19 29.68 1005 10 16 0.00 0.00
6:58 pm 18:58 Mostly Sunny 69 20.4 63 17.4 83 83 S 9 15 29.71 1006 10 16 0.00 0.03
7:58 pm 19:58 Cloudy 67 19.5 63 17 86 86 SSE 10 17 29.71 1006 10 16 0.00 0.03
8:58 pm 20:58 Cloudy with Light Rain 64 18 60 15.6 86 86 SE 13 20 29.75 1007 6 10 0.04 1.02
9:10 pm 21:10 Cloudy with Rain and Nearby Thunderstorms 64 18 61 16 88 88 ESE 9 15 29.71 1006 6 10 0.00 0.00
9:21 pm 21:21 Cloudy with Light Rain 63 17 61 16 94 94 ESE 9 15 29.71 1006 6 10 0.00 0.00
9:58 pm 21:58 Cloudy with Light Rain 63 17.2 61 15.9 92 92 E 7 11 29.71 1006 6 10 0.04 1.02
10:16 pm 22:16 Cloudy 63 17 61 16 94 94 ESE 8 13 29.71 1006 10 16 0.00 0.00
10:25 pm 22:25 Cloudy with Light Rain 63 17 61 16 94 94 ESE 8 13 29.74 1007 10 16 0.00 0.00
10:58 pm 22:58 Cloudy with Light Rain 63 17.1 60 15.8 92 92 ESE 5 7 29.75 1007 10 16 0.01 0.25
11:58 pm 23:58 Cloudy with Light Rain 63 17.3 61 16.3 94 94 S 3 6 29.73 1007 10 16 0.03 0.76

Powered by AerisWeather